Time,TemperatureF,DewpointF,PressureIn,WindDirection,WindDirectionDegrees,WindSpeedMPH,WindSpeedGustMPH,Humidity,HourlyPrecipIn,Conditions,Clouds,dailyrainin,SoftwareType,DateUTC
2013-06-15 00:02:00,63.0,57.0,30.10,WNW,282,1.0,3.0,80,0.00,,,0.00,,2013-06-15 04:02:00,
2013-06-15 00:12:00,63.0,57.0,30.09,NW,304,0.0,3.0,80,0.00,,,0.00,,2013-06-15 04:12:00,
2013-06-15 00:22:00,63.0,57.0,30.09,NW,304,0.0,1.0,81,0.00,,,0.00,,2013-06-15 04:22:00,
2013-06-15 00:34:00,62.0,56.0,30.09,NW,304,0.0,2.0,81,0.00,,,0.00,,2013-06-15 04:34:00,
2013-06-15 00:43:00,62.0,56.0,30.09,NW,304,0.0,2.0,81,0.00,,,0.00,,2013-06-15 04:43:00,
2013-06-15 00:54:00,61.0,56.0,30.09,NW,304,0.0,2.0,83,0.00,,,0.00,,2013-06-15 04:54:00,
2013-06-15 01:02:00,61.0,56.0,30.09,NW,304,0.0,2.0,84,0.00,,,0.00,,2013-06-15 05:02:00,
2013-06-15 01:12:00,59.0,56.0,30.09,NW,304,0.0,0.0,89,0.00,,,0.00,,2013-06-15 05:12:00,
2013-06-15 01:22:00,58.0,55.0,30.09,NW,304,0.0,0.0,91,0.00,,,0.00,,2013-06-15 05:22:00,
2013-06-15 01:34:00,58.0,56.0,30.09,NW,304,0.0,0.0,92,0.00,,,0.00,,2013-06-15 05:34:00,
2013-06-15 01:43:00,57.0,55.0,30.08,NW,304,0.0,0.0,93,0.00,,,0.00,,2013-06-15 05:43:00,
2013-06-15 01:52:00,57.0,55.0,30.08,WNW,303,0.0,0.0,93,0.00,,,0.00,,2013-06-15 05:52:00,
2013-06-15 02:02:00,57.0,55.0,30.08,WNW,303,0.0,0.0,93,0.00,,,0.00,,2013-06-15 06:02:00,
2013-06-15 02:12:00,57.0,55.0,30.08,WNW,303,0.0,0.0,93,0.00,,,0.00,,2013-06-15 06:12:00,
2013-06-15 02:24:00,56.0,54.0,30.08,WNW,303,0.0,0.0,93,0.00,,,0.00,,2013-06-15 06:24:00,
2013-06-15 02:33:00,55.0,53.0,30.08,WNW,303,0.0,1.0,94,0.00,,,0.00,,2013-06-15 06:33:00,
2013-06-15 02:43:00,55.0,53.0,30.08,WNW,303,0.0,0.0,94,0.00,,,0.00,,2013-06-15 06:43:00,
2013-06-15 02:53:00,55.0,53.0,30.08,WNW,303,0.0,0.0,94,0.00,,,0.00,,2013-06-15 06:53:00,
2013-06-15 03:01:00,55.0,53.0,30.08,WNW,303,0.0,0.0,94,0.00,,,0.00,,2013-06-15 07:01:00,
2013-06-15 03:11:00,55.0,53.0,30.09,NW,304,0.0,0.0,94,0.00,,,0.00,,2013-06-15 07:11:00,
2013-06-15 03:23:00,55.0,54.0,30.08,NW,304,0.0,0.0,95,0.00,,,0.00,,2013-06-15 07:23:00,
2013-06-15 03:33:00,55.0,54.0,30.07,NW,304,0.0,0.0,95,0.00,,,0.00,,2013-06-15 07:33:00,
2013-06-15 03:43:00,54.0,53.0,30.08,NW,304,0.0,0.0,95,0.00,,,0.00,,2013-06-15 07:43:00,
2013-06-15 03:53:00,54.0,53.0,30.08,NW,304,0.0,0.0,95,0.00,,,0.00,,2013-06-15 07:53:00,
2013-06-15 04:02:00,54.0,53.0,30.07,NW,304,0.0,0.0,95,0.00,,,0.00,,2013-06-15 08:02:00,
2013-06-15 04:11:00,54.0,53.0,30.08,NW,304,0.0,0.0,95,0.00,,,0.00,,2013-06-15 08:11:00,
2013-06-15 04:22:00,54.0,53.0,30.08,NW,304,0.0,0.0,95,0.00,,,0.00,,2013-06-15 08:22:00,
2013-06-15 04:33:00,55.0,54.0,30.09,NW,304,0.0,0.0,96,0.00,,,0.00,,2013-06-15 08:33:00,
2013-06-15 04:43:00,55.0,54.0,30.09,NW,304,0.0,0.0,96,0.00,,,0.00,,2013-06-15 08:43:00,
2013-06-15 04:53:00,55.0,54.0,30.09,NW,304,0.0,0.0,96,0.00,,,0.00,,2013-06-15 08:53:00,
2013-06-15 05:02:00,55.0,54.0,30.10,NW,304,0.0,0.0,96,0.00,,,0.00,,2013-06-15 09:02:00,
2013-06-15 05:12:00,55.0,54.0,30.10,NW,304,0.0,0.0,96,0.00,,,0.00,,2013-06-15 09:12:00,
2013-06-15 05:22:00,55.0,54.0,30.10,NW,304,0.0,0.0,96,0.00,,,0.00,,2013-06-15 09:22:00,
2013-06-15 05:33:00,55.0,54.0,30.11,NW,304,0.0,0.0,96,0.00,,,0.00,,2013-06-15 09:33:00,
2013-06-15 05:43:00,55.0,54.0,30.12,NW,304,0.0,0.0,96,0.00,,,0.00,,2013-06-15 09:43:00,
2013-06-15 05:52:00,55.0,54.0,30.12,NW,304,0.0,1.0,96,0.00,,,0.00,,2013-06-15 09:52:00,
2013-06-15 06:02:00,54.0,53.0,30.11,NW,304,0.0,0.0,96,0.00,,,0.00,,2013-06-15 10:02:00,
2013-06-15 06:12:00,54.0,53.0,30.12,NW,304,0.0,1.0,96,0.00,,,0.00,,2013-06-15 10:12:00,
2013-06-15 06:23:00,54.0,53.0,30.12,NW,304,0.0,0.0,96,0.00,,,0.00,,2013-06-15 10:23:00,
2013-06-15 06:34:00,54.0,53.0,30.14,NW,304,0.0,0.0,96,0.00,,,0.00,,2013-06-15 10:34:00,
2013-06-15 06:44:00,54.0,53.0,30.14,NW,304,0.0,0.0,97,0.00,,,0.00,,2013-06-15 10:44:00,
2013-06-15 06:53:00,54.0,53.0,30.14,NW,304,0.0,0.0,97,0.00,,,0.00,,2013-06-15 10:53:00,
2013-06-15 07:02:00,53.0,52.0,30.14,NW,304,0.0,0.0,97,0.00,,,0.00,,2013-06-15 11:02:00,
2013-06-15 07:12:00,54.0,53.0,30.14,NW,304,0.0,0.0,97,0.00,,,0.00,,2013-06-15 11:12:00,
2013-06-15 07:22:00,54.0,53.0,30.14,NW,304,0.0,2.0,97,0.00,,,0.00,,2013-06-15 11:22:00,
2013-06-15 07:33:00,54.0,53.0,30.14,NW,304,0.0,1.0,97,0.00,,,0.00,,2013-06-15 11:33:00,
2013-06-15 07:43:00,55.0,54.0,30.14,NW,304,0.0,1.0,97,0.00,,,0.00,,2013-06-15 11:43:00,
2013-06-15 07:53:00,55.0,54.0,30.15,NW,304,0.0,1.0,97,0.00,,,0.00,,2013-06-15 11:53:00,
2013-06-15 08:02:00,55.0,54.0,30.15,NW,304,0.0,1.0,97,0.00,,,0.00,,2013-06-15 12:02:00,
2013-06-15 08:12:00,55.0,54.0,30.15,NW,304,0.0,1.0,97,0.00,,,0.00,,2013-06-15 12:12:00,
2013-06-15 08:22:00,55.0,54.0,30.15,NW,304,0.0,1.0,97,0.00,,,0.00,,2013-06-15 12:22:00,
2013-06-15 08:33:00,55.0,54.0,30.16,NW,304,0.0,1.0,97,0.00,,,0.00,,2013-06-15 12:33:00,
2013-06-15 08:43:00,56.0,55.0,30.17,WNW,303,0.0,0.0,97,0.00,,,0.00,,2013-06-15 12:43:00,
2013-06-15 08:52:00,56.0,55.0,30.17,WNW,303,0.0,0.0,97,0.00,,,0.00,,2013-06-15 12:52:00,
2013-06-15 09:02:00,56.0,55.0,30.17,WNW,303,0.0,0.0,97,0.00,,,0.00,,2013-06-15 13:02:00,
2013-06-15 09:11:00,58.0,57.0,30.17,ENE,59,0.0,1.0,97,0.00,,,0.00,,2013-06-15 13:11:00,
2013-06-15 09:22:00,59.0,58.0,30.17,SW,232,0.0,3.0,96,0.00,,,0.00,,2013-06-15 13:22:00,
2013-06-15 09:32:00,60.0,57.0,30.17,West,278,1.0,3.0,89,0.00,,,0.00,,2013-06-15 13:32:00,
2013-06-15 09:44:00,62.0,57.0,30.17,ESE,111,0.0,3.0,83,0.00,,,0.00,,2013-06-15 13:44:00,
2013-06-15 09:53:00,63.0,56.0,30.17,West,259,1.0,3.0,77,0.00,,,0.00,,2013-06-15 13:53:00,
2013-06-15 10:02:00,64.0,56.0,30.17,West,264,3.0,5.0,76,0.00,,,0.00,,2013-06-15 14:02:00,
2013-06-15 10:12:00,65.0,55.0,30.16,SSW,198,0.0,2.0,71,0.00,,,0.00,,2013-06-15 14:12:00,
2013-06-15 10:22:00,66.0,56.0,30.16,West,279,2.0,4.0,70,0.00,,,0.00,,2013-06-15 14:22:00,
2013-06-15 10:34:00,67.0,56.0,30.16,SW,216,1.0,3.0,67,0.00,,,0.00,,2013-06-15 14:34:00,
2013-06-15 10:43:00,67.0,56.0,30.15,SW,217,1.0,4.0,67,0.00,,,0.00,,2013-06-15 14:43:00,
2013-06-15 10:53:00,68.0,58.0,30.15,SSW,194,1.0,5.0,71,0.00,,,0.00,,2013-06-15 14:53:00,
2013-06-15 11:02:00,68.0,55.0,30.15,SSW,211,0.0,4.0,64,0.00,,,0.00,,2013-06-15 15:02:00,
2013-06-15 11:11:00,69.0,56.0,30.15,NW,313,2.0,8.0,63,0.00,,,0.00,,2013-06-15 15:11:00,
2013-06-15 11:22:00,69.0,54.0,30.15,WNW,292,1.0,8.0,59,0.00,,,0.00,,2013-06-15 15:22:00,
2013-06-15 11:33:00,70.0,57.0,30.15,West,267,0.0,4.0,63,0.00,,,0.00,,2013-06-15 15:33:00,
2013-06-15 11:43:00,71.0,54.0,30.15,SW,228,1.0,6.0,56,0.00,,,0.00,,2013-06-15 15:43:00,
2013-06-15 11:53:00,71.0,55.0,30.15,WNW,283,2.0,7.0,58,0.00,,,0.00,,2013-06-15 15:53:00,
2013-06-15 12:01:00,72.0,55.0,30.15,WNW,294,2.0,5.0,56,0.00,,,0.00,,2013-06-15 16:01:00,
2013-06-15 12:12:00,72.0,53.0,30.14,WNW,292,1.0,3.0,52,0.00,,,0.00,,2013-06-15 16:12:00,
2013-06-15 12:22:00,72.0,55.0,30.14,West,279,3.0,7.0,55,0.00,,,0.00,,2013-06-15 16:22:00,
2013-06-15 12:33:00,72.0,53.0,30.14,West,265,2.0,7.0,51,0.00,,,0.00,,2013-06-15 16:33:00,
2013-06-15 12:53:00,73.0,54.0,30.13,WSW,252,2.0,6.0,51,0.00,,,0.00,,2013-06-15 16:53:00,
2013-06-15 13:02:00,73.0,53.0,30.13,WNW,283,1.0,4.0,49,0.00,,,0.00,,2013-06-15 17:02:00,
2013-06-15 13:12:00,73.0,57.0,30.13,NW,306,1.0,4.0,57,0.00,,,0.00,,2013-06-15 17:12:00,
2013-06-15 13:22:00,73.0,53.0,30.12,West,263,1.0,5.0,50,0.00,,,0.00,,2013-06-15 17:22:00,
2013-06-15 13:32:00,72.0,49.0,30.12,WSW,238,2.0,5.0,45,0.00,,,0.00,,2013-06-15 17:32:00,
2013-06-15 13:43:00,73.0,55.0,30.12,WNW,290,0.0,5.0,53,0.00,,,0.00,,2013-06-15 17:43:00,
2013-06-15 13:52:00,74.0,52.0,30.12,SW,227,1.0,5.0,47,0.00,,,0.00,,2013-06-15 17:52:00,
2013-06-15 14:01:00,74.0,55.0,30.11,WNW,302,1.0,6.0,51,0.00,,,0.00,,2013-06-15 18:01:00,
2013-06-15 14:12:00,73.0,51.0,30.11,SE,141,0.0,5.0,46,0.00,,,0.00,,2013-06-15 18:12:00,
2013-06-15 14:22:00,75.0,53.0,30.11,WSW,257,1.0,3.0,46,0.00,,,0.00,,2013-06-15 18:22:00,
2013-06-15 14:43:00,75.0,56.0,30.11,ESE,106,1.0,7.0,52,0.00,,,0.00,,2013-06-15 18:43:00,
2013-06-15 14:53:00,75.0,50.0,30.11,West,273,3.0,7.0,41,0.00,,,0.00,,2013-06-15 18:53:00,
2013-06-15 15:02:00,75.0,50.0,30.10,West,270,3.0,6.0,42,0.00,,,0.00,,2013-06-15 19:02:00,
2013-06-15 15:12:00,75.0,53.0,30.09,SE,131,2.0,8.0,46,0.00,,,0.00,,2013-06-15 19:12:00,
2013-06-15 15:22:00,75.0,51.0,30.09,WNW,288,2.0,8.0,43,0.00,,,0.00,,2013-06-15 19:22:00,
2013-06-15 15:33:00,75.0,50.0,30.09,WNW,289,3.0,7.0,41,0.00,,,0.00,,2013-06-15 19:33:00,
2013-06-15 15:43:00,75.0,51.0,30.09,ESE,123,1.0,4.0,43,0.00,,,0.00,,2013-06-15 19:43:00,
2013-06-15 15:52:00,76.0,52.0,30.09,NNW,337,1.0,4.0,44,0.00,,,0.00,,2013-06-15 19:52:00,
2013-06-15 16:02:00,75.0,53.0,30.09,SSE,161,2.0,5.0,46,0.00,,,0.00,,2013-06-15 20:02:00,
2013-06-15 16:11:00,75.0,52.0,30.08,NW,323,2.0,5.0,44,0.00,,,0.00,,2013-06-15 20:11:00,
2013-06-15 16:22:00,76.0,55.0,30.08,West,269,2.0,6.0,49,0.00,,,0.00,,2013-06-15 20:22:00,
2013-06-15 16:33:00,75.0,52.0,30.08,West,260,1.0,5.0,45,0.00,,,0.00,,2013-06-15 20:33:00,
2013-06-15 16:43:00,75.0,52.0,30.08,ENE,66,1.0,5.0,45,0.00,,,0.00,,2013-06-15 20:43:00,
2013-06-15 16:53:00,75.0,53.0,30.08,SE,131,1.0,5.0,46,0.00,,,0.00,,2013-06-15 20:53:00,
2013-06-15 17:02:00,76.0,55.0,30.08,SW,229,1.0,5.0,48,0.00,,,0.00,,2013-06-15 21:02:00,
2013-06-15 17:12:00,76.0,53.0,30.07,SSW,207,1.0,4.0,45,0.00,,,0.00,,2013-06-15 21:12:00,
2013-06-15 17:22:00,75.0,53.0,30.07,WNW,298,1.0,5.0,46,0.00,,,0.00,,2013-06-15 21:22:00,
2013-06-15 17:34:00,75.0,53.0,30.07,SSW,196,2.0,5.0,47,0.00,,,0.00,,2013-06-15 21:34:00,
2013-06-15 17:42:00,75.0,54.0,30.07,WNW,282,1.0,6.0,48,0.00,,,0.00,,2013-06-15 21:42:00,
2013-06-15 17:52:00,75.0,53.0,30.07,WNW,298,0.0,3.0,47,0.00,,,0.00,,2013-06-15 21:52:00,
2013-06-15 18:01:00,76.0,53.0,30.07,WSW,252,2.0,8.0,45,0.00,,,0.00,,2013-06-15 22:01:00,
2013-06-15 18:11:00,75.0,54.0,30.07,WNW,300,1.0,5.0,48,0.00,,,0.00,,2013-06-15 22:11:00,
2013-06-15 18:22:00,75.0,53.0,30.06,SSW,206,1.0,6.0,47,0.00,,,0.00,,2013-06-15 22:22:00,
2013-06-15 18:33:00,75.0,53.0,30.07,West,275,2.0,7.0,46,0.00,,,0.00,,2013-06-15 22:33:00,
2013-06-15 18:43:00,75.0,54.0,30.07,SSE,159,1.0,6.0,48,0.00,,,0.00,,2013-06-15 22:43:00,
2013-06-15 18:53:00,75.0,55.0,30.07,WNW,288,1.0,5.0,50,0.00,,,0.00,,2013-06-15 22:53:00,
2013-06-15 19:02:00,75.0,54.0,30.08,WNW,294,1.0,4.0,48,0.00,,,0.00,,2013-06-15 23:02:00,
2013-06-15 19:12:00,75.0,54.0,30.07,WSW,238,2.0,6.0,48,0.00,,,0.00,,2013-06-15 23:12:00,
2013-06-15 19:22:00,75.0,53.0,30.07,West,274,2.0,4.0,47,0.00,,,0.00,,2013-06-15 23:22:00,
2013-06-15 19:33:00,74.0,54.0,30.07,SSW,196,0.0,3.0,50,0.00,,,0.00,,2013-06-15 23:33:00,
2013-06-15 19:42:00,74.0,53.0,30.07,West,265,2.0,5.0,48,0.00,,,0.00,,2013-06-15 23:42:00,
2013-06-15 19:53:00,73.0,54.0,30.07,West,272,0.0,3.0,51,0.00,,,0.00,,2013-06-15 23:53:00,
2013-06-15 20:02:00,73.0,55.0,30.07,West,272,0.0,1.0,53,0.00,,,0.00,,2013-06-16 00:02:00,
2013-06-15 20:11:00,73.0,56.0,30.07,West,272,0.0,0.0,55,0.00,,,0.00,,2013-06-16 00:11:00,
2013-06-15 20:22:00,72.0,55.0,30.07,West,272,0.0,1.0,56,0.00,,,0.00,,2013-06-16 00:22:00,
2013-06-15 20:34:00,72.0,55.0,30.07,West,272,0.0,0.0,55,0.00,,,0.00,,2013-06-16 00:34:00,
2013-06-15 20:43:00,72.0,56.0,30.07,West,272,0.0,0.0,58,0.00,,,0.00,,2013-06-16 00:43:00,
2013-06-15 20:52:00,71.0,56.0,30.06,West,272,0.0,0.0,59,0.00,,,0.00,,2013-06-16 00:52:00,
2013-06-15 21:02:00,70.0,56.0,30.06,West,272,0.0,0.0,61,0.00,,,0.00,,2013-06-16 01:02:00,
2013-06-15 21:12:00,70.0,57.0,30.05,West,272,0.0,0.0,63,0.00,,,0.00,,2013-06-16 01:12:00,
2013-06-15 21:22:00,69.0,57.0,30.04,West,272,0.0,0.0,65,0.00,,,0.00,,2013-06-16 01:22:00,
2013-06-15 21:33:00,69.0,57.0,30.05,West,272,0.0,0.0,65,0.00,,,0.00,,2013-06-16 01:33:00,
2013-06-15 21:42:00,69.0,56.0,30.04,West,272,0.0,0.0,64,0.00,,,0.00,,2013-06-16 01:42:00,
2013-06-15 21:53:00,68.0,56.0,30.04,West,272,0.0,0.0,65,0.00,,,0.00,,2013-06-16 01:53:00,
2013-06-15 22:02:00,68.0,56.0,30.05,West,272,0.0,0.0,66,0.00,,,0.00,,2013-06-16 02:02:00,
2013-06-15 22:12:00,68.0,57.0,30.05,West,272,0.0,0.0,67,0.00,,,0.00,,2013-06-16 02:12:00,
2013-06-15 22:22:00,68.0,57.0,30.05,West,272,0.0,0.0,67,0.00,,,0.00,,2013-06-16 02:22:00,
2013-06-15 22:33:00,67.0,57.0,30.06,West,272,0.0,0.0,71,0.00,,,0.00,,2013-06-16 02:33:00,
2013-06-15 22:43:00,67.0,58.0,30.06,West,272,0.0,0.0,73,0.00,,,0.00,,2013-06-16 02:43:00,
2013-06-15 22:53:00,67.0,57.0,30.06,West,272,0.0,0.0,71,0.00,,,0.00,,2013-06-16 02:53:00,
2013-06-15 23:02:00,67.0,58.0,30.06,West,272,0.0,0.0,73,0.00,,,0.00,,2013-06-16 03:02:00,
2013-06-15 23:12:00,66.0,58.0,30.07,West,272,0.0,0.0,75,0.00,,,0.00,,2013-06-16 03:12:00,
2013-06-15 23:22:00,66.0,58.0,30.07,West,272,0.0,0.0,75,0.00,,,0.00,,2013-06-16 03:22:00,
2013-06-15 23:34:00,66.0,59.0,30.07,West,272,0.0,0.0,79,0.00,,,0.00,,2013-06-16 03:34:00,
2013-06-15 23:43:00,66.0,59.0,30.07,West,272,0.0,0.0,77,0.00,,,0.00,,2013-06-16 03:43:00,
2013-06-15 23:53:00,66.0,58.0,30.07,West,272,0.0,0.0,75,0.00,,,0.00,,2013-06-16 03:53:00,